Regional Weather Roundup
Issued by NWS Upton, NY

Current Version | Previous Version | Graphics & Text | Print | Product List | Glossary Off
Versions: 1 2 3 4 5 6 7 8 9 10 11 12 13 14 15 16 17 18 19 20 21 22 23 24 25 26 27

000
ASUS41 KOKX 181208
RWROKX

REGIONAL WEATHER ROUNDUP
NATIONAL WEATHER SERVICE NEW YORK NY
700 AM EST SAT NOV 18 2017

NOTE: "FAIR" INDICATES FEW OR NO CLOUDS BELOW 12,000 FEET WITH NO
SIGNIFICANT WEATHER AND/OR OBSTRUCTIONS TO VISIBILITY.

NYZ071-072-176-178-NJZ106-104-181300-
NEW YORK CITY METRO AREA

CITY           SKY/WX    TMP DP  RH WIND       PRES   REMARKS
Central Park   CLOUDY    37  22  54 CALM      30.00F
Bronx Bot Gard   N/A     34  23  64 CALM      29.97F
LaGuardia APRT CLOUDY    39  21  48 S6        29.98F WCI  35
Kennedy INTL   CLOUDY    32  26  78 CALM      30.00F
Breezy Point     N/A     41 N/A N/A S8          N/A
Newark/Liberty MOCLDY    33  23  66 W6        30.00S WCI  28
Teterboro      CLOUDY    29  22  75 CALM      29.98F
$$

NYZ177-179-078>081-181300-
LONG ISLAND NEW YORK

CITY           SKY/WX    TMP DP  RH WIND       PRES   REMARKS
Jones Beach      N/A     41 N/A N/A CALM        N/A
Matinecock PT    N/A     36 N/A N/A S7          N/A  WCI  30
Farmingdale    CLOUDY    28  24  85 N3        30.00F
MacArthur/ISP  MOCLDY    28  24  85 CALM      29.99S
Shirley        CLOUDY    26  23  88 CALM      30.00F
Mt Sinai Harb    N/A    N/A N/A N/A S1          N/A
Westhampton    PTCLDY    19  15  84 CALM      30.02R
East Hampton   FAIR      21  19  90 CALM      30.00S
Southold       NOT AVBL
Montauk          N/A     40  26  57 SW3       30.01R
$$

NYZ052-065-067-181300-
HUDSON VALLEY

CITY           SKY/WX    TMP DP  RH WIND       PRES   REMARKS
White Plains   CLOUDY    28  25  88 CALM      29.96F
Larchmont Harb   N/A     37 N/A N/A S6          N/A  WCI  33
Croton On Huds   N/A    N/A N/A N/A CALM        N/A
Newburgh       MOCLDY    25  21  86 CALM      29.95F
Montgomery     CLOUDY    22  20  92 CALM      29.94F
Poughkeepsie   CLOUDY    22  17  81 CALM      29.95F
Albany         CLOUDY    24  18  77 SE3       29.93F
$$

NJZ001-105-106-008-010-013-015-019>022-104-181300-
NEW JERSEY

CITY           SKY/WX    TMP DP  RH WIND       PRES   REMARKS
Newark/Liberty MOCLDY    33  23  66 W6        30.00S WCI  28
Teterboro      CLOUDY    29  22  75 CALM      29.98F
Caldwell       CLOUDY    26  22  84 CALM      30.00F
Somerville     CLOUDY    24  22  91 CALM      29.98F
Linden         FAIR      30  23  73 CALM      30.00S
Perth Amboy      N/A     34 N/A N/A W5          N/A  WCI  30
Sussex         CLOUDY    24  21  88 S5        29.95F WCI  18
Andover        NOT AVBL
Trenton        CLOUDY    30  26  85 CALM      29.98F
Millville      CLOUDY    30  29  96 CALM      30.00F
Atlantic City  PTCLDY    34  29  82 S5        30.01F WCI  30
Wrightstown    CLOUDY    27  24  88 CALM      29.97F
Toms River     PTCLDY    24  22  91 CALM      30.01F
Belmar         CLOUDY    33  21  61 S5        30.01S WCI  29
$$

PAZ047>061-062-071-181300-
EASTERN PENNSYLVANIA

CITY           SKY/WX    TMP DP  RH WIND       PRES   REMARKS
Philadelphia   MOCLDY    38  32  79 S6        29.98F WCI  33
Allentown      CLOUDY    29  23  78 NE5       29.95F WCI  24
Scranton       CLOUDY    33  24  69 NE5       29.87F WCI  29
$$

CTZ002-004>006-009-010-012-RIZ004-006-007-MAZ004-011-015-181300-
SOUTHERN NEW ENGLAND
 IN CT

CITY           SKY/WX    TMP DP  RH WIND       PRES   REMARKS
Bradley INTL   CLOUDY    23  18  81 CALM      29.99S
Hartford       CLOUDY    24  21  88 CALM      30.00S
Danbury        CLOUDY    24  18  77 CALM      29.97F
Wtrbury/Oxford CLOUDY    24  15  68 S3        29.96F
Norwalk Harbor   N/A    N/A N/A N/A NE2         N/A
Bridgeport     MOCLDY    30  17  58 CALM      29.99F
Meriden        CLOUDY    20  18  92 CALM      29.99F
New Haven      PTCLDY    25  18  74 CALM      30.00S
Chester        FAIR      25  10  54 CALM      29.98S
Groton         CLEAR     25  19  78 NE5       29.99S WCI  19
Wilimantic     CLEAR     23  20  88 CALM      30.00R

 IN RI

CITY           SKY/WX    TMP DP  RH WIND       PRES   REMARKS
Providence     PTCLDY    27  19  72 W6        29.99F WCI  20
Block Island   CLOUDY    34  24  67 SW6       30.00S WCI  29
Westerly       CLEAR     26  22  84 CALM      30.00S
 IN MA

CITY           SKY/WX    TMP DP  RH WIND       PRES   REMARKS
Boston         PTCLDY    32  17  54 W6        29.98S WCI  26
Worcester      CLEAR     26  12  55 W8        29.93S WCI  18
Westfield      CLOUDY    20  18  92 CALM      29.98S
Provincetown   CLEAR     35  21  56 NW6       29.99S WCI  30
Nantucket      CLEAR     34  23  64 CALM      30.00R
$$

ANZ330-335-338-340-345-350-353-355-181300-
COASTAL MARINE OBSERVATIONS


STATION/POSITION TIME  SKY/WX   TEMP    WIND        PRES    VSBY  WAVE
                                AIR SEA DIR/SP/G                  HT/PER
                 (UTC)          (F)     (DEG/KT/KT) (MB)    (MI)  (FT/S)
NY HARB ENTRANCE 1150            48 57  210/ 12/ 16 1014.9          1/11
20 S FIRE ISLAND 1150            49 57  220/ 10/ 14 1016.0          1/11
GREAT SOUTH BAY  1130            37 46  340/  4/  4   N/A
HUDSON CANYON    1050            50 60  240/  8/ 12 1016.1          3/ 5
KINGS POINT      NOT AVBL
EXECUTION ROCKS  1145            39     140/  6/  8   N/A
WESTERN LI SOUND 1049            40     190/  6/  8   N/A           0
CENTRAL LI SOUND 1130            44     280/  6/ 10   N/A           1
ROBBINS REEF     NOT AVBL
$$


>>>>>>>>>>>>>>>>>>>>>>>>>>>> KEY <<<<<<<<<<<<<<<<<<<<<<<<<<<
>                                                          <
>     SKY/WX - Sky Condition/Present Weather               <
>     TMP    - Temperature in Fahrenheit                   <
>     DP     - Dew Point in Fahrenheit                     <
>     RH     - Relative Humidity in Percent                <
>     WIND   - Direction (from) and Speed in MPH           <
>     PRES   - Mean Sea Level Pressure (inches of Hg)      <
>     WCI    - Wind Chill Index                            <
>     VSB    - VISIBILITY IN MILES                         <
>     HX     - HEAT INDEX                                  <
>     TC     - TEMPERATURE IN CELSIUS                      <
>     VRB    - VARIABLE WIND DIRECTION                     <
>                                                          <
>>>>>>>>>>>>>>>>>>>>>>>>>>>> KEY <<<<<<<<<<<<<<<<<<<<<<<<<<<




USA.gov is the U.S. government's official web portal to all federal, state and local government web resources and services.